Weather History for Pipestone, MN

Change the Weather History Date:

Monday, March 11, 2013

  Actual Average Record
Temperature  
Mean Temperature 20 °F -  
Max Temperature 28 °F 31 °F 57 °F (2012)
Min Temperature 12 °F 17 °F -7 °F (1998)
Degree Days  
Heating Degree Days 45    
Moisture  
Dew Point 15 °F    
Average Humidity 77    
Maximum Humidity 93    
Minimum Humidity 55    
Precipitation  
Precipitation 0.01 in - - ()
Sea Level Pressure  
Sea Level Pressure 29.85 in    
Wind  
Wind Speed 11 mph (NNW)    
Max Wind Speed 17 mph    
Max Gust Speed 23 mph    
Visibility 10 miles    
Events      
Averages and records for this station are not official NWS values.
T = Trace of Precipitation, MM = Missing Value Source: NWS Daily Summary

Daily Weather History Graph

Daily Weather History Graph

Search for Another Location

Airport:

Trip Planner

Search our weather history database for the weather conditions in past years. The results will help you decide how hot, cold, wet, or windy it might be!

Date:

Astronomy

Mar. 11, 2013 Rise Set
Actual Time 7:44 AM CDT 7:26 PM CDT
Civil Twilight 7:15 AM CDT 7:55 PM CDT
Nautical Twilight 6:42 AM CDT 8:29 PM CDT
Astronomical Twilight 6:08 AM CDT 9:02 PM CDT
Moon 7:17 AM CDT (3/11) 7:42 PM CDT (3/11)
Length of Visible Light 12h 40m
Length of Day
11h 42m
Waning Crescent, 0% of the Moon is Illuminated
Mar 11
Waning Crescent
Mar 11
New
Mar 19
First Quarter
Mar 27
Full
Apr 2
Last Quarter

Hourly Weather History & Observations

Time (CDT) Temp. Windchill Dew Point Humidity Pressure Visibility Wind Dir Wind Speed Gust Speed Precip Events Conditions
12:13 AM 17.6 °F 5.0 °F 15.8 °F 93% 29.93 in 10.0 mi North 11.5 mph 21.9 mph N/A   Overcast
12:33 AM 19.4 °F 7.2 °F 15.8 °F 86% 29.92 in 10.0 mi North 11.5 mph 16.1 mph N/A   Overcast
12:53 AM 19.4 °F 5.5 °F 15.8 °F 86% 29.91 in 10.0 mi NNE 15.0 mph 19.6 mph N/A   Overcast
1:33 AM 19.4 °F 6.6 °F 15.8 °F 86% 29.90 in 10.0 mi North 12.7 mph 19.6 mph N/A   Overcast
1:53 AM 17.6 °F 5.0 °F 15.8 °F 93% 29.89 in 10.0 mi North 11.5 mph 18.4 mph N/A   Overcast
2:13 AM 17.6 °F 4.3 °F 15.8 °F 93% 29.89 in 10.0 mi North 12.7 mph 18.4 mph N/A   Overcast
2:53 AM 17.6 °F 2.2 °F 14.0 °F 86% 29.90 in 10.0 mi North 17.3 mph 23.0 mph N/A   Overcast
3:13 AM 17.6 °F 6.4 °F 12.2 °F 79% 29.89 in 10.0 mi North 9.2 mph 19.6 mph N/A   Overcast
3:33 AM 17.6 °F 5.0 °F 12.2 °F 79% 29.89 in 10.0 mi North 11.5 mph - N/A   Overcast
3:53 AM 17.6 °F 5.0 °F 12.2 °F 79% 29.88 in 10.0 mi NNE 11.5 mph 18.4 mph N/A   Overcast
4:13 AM 17.6 °F 5.7 °F 12.2 °F 79% 29.87 in 10.0 mi North 10.4 mph 17.3 mph N/A   Overcast
4:33 AM 15.8 °F 2.1 °F 12.2 °F 86% 29.87 in 10.0 mi North 12.7 mph 17.3 mph N/A   Overcast
5:13 AM 15.8 °F 3.4 °F 12.2 °F 86% 29.87 in 10.0 mi NNW 10.4 mph - N/A   Overcast
5:33 AM 15.8 °F 4.2 °F 12.2 °F 86% 29.86 in 10.0 mi North 9.2 mph - N/A   Overcast
5:53 AM 15.8 °F 6.1 °F 10.4 °F 79% 29.86 in 10.0 mi North 6.9 mph - N/A   Overcast
6:13 AM 15.8 °F 7.2 °F 12.2 °F 86% 29.85 in 10.0 mi North 5.8 mph - N/A   Mostly Cloudy
6:33 AM 15.8 °F 4.2 °F 12.2 °F 86% 29.86 in 10.0 mi North 9.2 mph - N/A   Mostly Cloudy
6:53 AM 15.8 °F 4.2 °F 10.4 °F 79% 29.86 in 10.0 mi North 9.2 mph - N/A   Clear
7:13 AM 14.0 °F 1.2 °F 10.4 °F 86% 29.87 in 10.0 mi North 10.4 mph - N/A   Clear
7:33 AM 12.2 °F 0.7 °F 10.4 °F 92% 29.87 in 10.0 mi NNW 8.1 mph - N/A   Scattered Clouds
7:53 AM 12.2 °F -1.0 °F 8.6 °F 85% 29.86 in 10.0 mi NNW 10.4 mph - N/A   Mostly Cloudy
8:13 AM 12.2 °F 0.7 °F 8.6 °F 85% 29.86 in 10.0 mi NNW 8.1 mph - N/A   Mostly Cloudy
8:33 AM 12.2 °F 0.7 °F 8.6 °F 85% 29.86 in 10.0 mi NNW 8.1 mph - N/A   Mostly Cloudy
8:53 AM 12.2 °F 2.9 °F 8.6 °F 85% 29.86 in 10.0 mi NW 5.8 mph - N/A   Scattered Clouds
9:13 AM 12.2 °F 1.7 °F 10.4 °F 92% 29.85 in 10.0 mi NNW 6.9 mph - N/A   Clear
9:33 AM 15.8 °F 6.1 °F 10.4 °F 79% 29.85 in 10.0 mi NNW 6.9 mph - N/A   Clear
9:53 AM 17.6 °F 7.3 °F 12.2 °F 79% 29.85 in 10.0 mi NW 8.1 mph - N/A   Clear
10:13 AM 17.6 °F 7.3 °F 12.2 °F 79% 29.85 in 10.0 mi NNW 8.1 mph - N/A   Clear
10:33 AM 19.4 °F 9.5 °F 14.0 °F 80% 29.85 in 10.0 mi NW 8.1 mph - N/A   Clear
10:53 AM 19.4 °F 8.6 °F 14.0 °F 80% 29.84 in 10.0 mi NW 9.2 mph - N/A   Clear
11:13 AM 19.4 °F 8.6 °F 15.8 °F 86% 29.84 in 10.0 mi NNW 9.2 mph - N/A   Clear
11:33 AM 21.2 °F 12.6 °F 15.8 °F 80% 29.84 in 10.0 mi NW 6.9 mph - N/A   Clear
11:52 AM 21.2 °F 12.6 °F 15.8 °F 80% 29.84 in 10.0 mi NW 6.9 mph - N/A   Clear
12:13 PM 21.2 °F 10.1 °F 15.8 °F 80% 29.83 in 10.0 mi NNW 10.4 mph - N/A   Clear
12:33 PM 24.8 °F 16.1 °F 17.6 °F 74% 29.82 in 10.0 mi NNW 8.1 mph - N/A   Clear
12:53 PM 24.8 °F 15.3 °F 17.6 °F 74% 29.82 in 10.0 mi NW 9.2 mph - N/A   Clear
1:13 PM 24.8 °F 15.3 °F 17.6 °F 74% 29.82 in 10.0 mi NNW 9.2 mph - N/A   Scattered Clouds
1:33 PM 24.8 °F 16.1 °F 17.6 °F 74% 29.81 in 10.0 mi NNW 8.1 mph - N/A   Scattered Clouds
1:53 PM 26.6 °F 15.7 °F 17.6 °F 69% 29.81 in 10.0 mi NNW 12.7 mph 16.1 mph 0.01 in   Mostly Cloudy
2:13 PM 26.6 °F 15.7 °F 17.6 °F 69% 29.81 in 10.0 mi NNW 12.7 mph - N/A   Mostly Cloudy
2:33 PM 26.6 °F 16.8 °F 17.6 °F 69% 29.81 in 10.0 mi NW 10.4 mph - N/A   Scattered Clouds
2:53 PM 26.6 °F 16.2 °F 19.4 °F 74% 29.80 in 10.0 mi NW 11.5 mph - N/A   Mostly Cloudy
3:13 PM 26.6 °F 15.2 °F 17.6 °F 69% 29.80 in 10.0 mi NW 13.8 mph 18.4 mph N/A   Overcast
3:33 PM 26.6 °F 14.7 °F 15.8 °F 64% 29.80 in 10.0 mi NNW 15.0 mph 19.6 mph N/A   Overcast
3:53 PM 26.6 °F 16.2 °F 15.8 °F 64% 29.80 in 10.0 mi NNW 11.5 mph - N/A   Overcast
4:13 PM 26.6 °F 16.2 °F 17.6 °F 69% 29.80 in 10.0 mi NNW 11.5 mph - N/A   Mostly Cloudy
4:33 PM 28.4 °F 21.2 °F 17.6 °F 64% 29.79 in 10.0 mi North 6.9 mph - N/A   Mostly Cloudy
4:53 PM 28.4 °F 18.5 °F 17.6 °F 64% 29.80 in 10.0 mi NW 11.5 mph - N/A   Scattered Clouds
5:13 PM 28.4 °F 19.1 °F 15.8 °F 59% 29.79 in 10.0 mi NW 10.4 mph - N/A   Scattered Clouds
5:33 PM 28.4 °F 19.7 °F 14.0 °F 55% 29.79 in 10.0 mi NW 9.2 mph - N/A   Mostly Cloudy
5:53 PM 28.4 °F 19.1 °F 14.0 °F 55% 29.79 in 10.0 mi NW 10.4 mph - N/A   Scattered Clouds
6:13 PM 28.4 °F 19.1 °F 17.6 °F 64% 29.81 in 10.0 mi NW 10.4 mph - N/A   Clear
6:33 PM 26.6 °F 16.8 °F 17.6 °F 69% 29.82 in 10.0 mi NW 10.4 mph - N/A   Clear
6:53 PM 26.6 °F 18.2 °F 17.6 °F 69% 29.82 in 10.0 mi NW 8.1 mph - N/A   Clear
7:12 PM 26.6 °F 18.2 °F 17.6 °F 69% 29.83 in 10.0 mi NW 8.1 mph - N/A   Mostly Cloudy
7:33 PM 26.6 °F 16.8 °F 15.8 °F 64% 29.85 in 10.0 mi NW 10.4 mph - N/A   Overcast
7:53 PM 26.6 °F 17.5 °F 15.8 °F 64% 29.85 in 10.0 mi NW 9.2 mph - N/A   Mostly Cloudy
8:13 PM 24.8 °F 15.3 °F 17.6 °F 74% 29.86 in 10.0 mi NW 9.2 mph - N/A   Scattered Clouds
8:33 PM 24.8 °F 15.3 °F 17.6 °F 74% 29.87 in 10.0 mi NW 9.2 mph - N/A   Clear
8:53 PM 24.8 °F 13.4 °F 15.8 °F 69% 29.87 in 10.0 mi WNW 12.7 mph - N/A   Scattered Clouds
9:13 PM 26.6 °F 16.2 °F 17.6 °F 69% 29.87 in 10.0 mi NNW 11.5 mph 18.4 mph N/A   Mostly Cloudy
9:33 PM 24.8 °F 13.4 °F 17.6 °F 74% 29.88 in 10.0 mi NW 12.7 mph - N/A   Overcast
9:53 PM 24.8 °F 12.9 °F 17.6 °F 74% 29.88 in 10.0 mi NNW 13.8 mph 19.6 mph N/A   Overcast
10:13 PM 26.6 °F 15.7 °F 19.4 °F 74% 29.89 in 10.0 mi NNW 12.7 mph 17.3 mph N/A   Overcast
10:33 PM 26.6 °F 16.8 °F 19.4 °F 74% 29.88 in 10.0 mi NNW 10.4 mph 18.4 mph N/A   Overcast
10:53 PM 26.6 °F 17.5 °F 21.2 °F 80% 29.88 in 10.0 mi NNW 9.2 mph - N/A   Overcast
11:13 PM 26.6 °F 18.2 °F 21.2 °F 80% 29.88 in 10.0 mi North 8.1 mph - N/A   Overcast
11:53 PM 26.6 °F 17.5 °F 21.2 °F 80% 29.89 in 10.0 mi NW 9.2 mph - N/A   Clear